| time (UTC) | temp F | wind direction | speed MPH | gust MPH | rain 1hr in | rain 24hr in | rain mn in | humidity % | barometer mb |
| 20260901153024 | 77 | 257 | 0.0 | 3.0 | 0.00 | 0.00 | 0.00 | 94 | 1011.6 |
| 20260901151521 | 76 | 278 | 0.0 | 2.0 | 0.00 | 0.00 | 0.00 | 95 | 1011.5 |
| 20260901150019 | 76 | 292 | 0.0 | 3.0 | 0.00 | 0.00 | 0.00 | 96 | 1011.4 |
| 20260901144517 | 76 | 300 | 0.0 | 3.0 | 0.00 | 0.00 | 0.00 | 96 | 1011.4 |
| 20260901143017 | 75 | 276 | 0.0 | 4.0 | 0.00 | 0.00 | 0.00 | 96 | 1011.3 |
| 20260901141531 | 75 | 261 | 0.0 | 4.0 | 0.00 | 0.00 | 0.00 | 97 | 1011.2 |
| 20260901140016 | 75 | 192 | 0.0 | 1.0 | 0.00 | 0.00 | 0.00 | 98 | 1011.3 |
| 20260901134514 | 75 | 188 | 0.0 | 0.0 | 0.00 | 0.00 | 0.00 | 98 | 1011.1 |
| 20260901133018 | 74 | 188 | 0.0 | 0.0 | 0.00 | 0.00 | 0.00 | 98 | 1011.2 |
| 20260901131515 | 74 | 188 | 0.0 | 0.0 | 0.00 | 0.00 | 0.00 | 97 | 1011.4 |
| 20260901130013 | 74 | 188 | 0.0 | 0.0 | 0.00 | 0.00 | 0.00 | 97 | 1011.4 |
| 20260901124513 | 73 | 188 | 0.0 | 0.0 | 0.00 | 0.00 | 0.00 | 97 | 1011.4 |
| 20260901123011 | 73 | 188 | 0.0 | 0.0 | 0.00 | 0.00 | 0.00 | 97 | 1011.5 |
| 20260901121509 | 73 | 188 | 0.0 | 0.0 | 0.00 | 0.00 | 0.00 | 97 | 1011.2 |
| 20260901120006 | 72 | 188 | 0.0 | 0.0 | 0.00 | 0.00 | 0.00 | 97 | 1010.9 |
| 20260901114505 | 71 | 188 | 0.0 | 0.0 | 0.00 | 0.00 | 0.00 | 96 | 1010.9 |
| 20260901113002 | 71 | 188 | 0.0 | 0.0 | 0.00 | 0.00 | 0.00 | 96 | 1010.7 |
| 20260901111502 | 71 | 188 | 0.0 | 0.0 | 0.00 | 0.00 | 0.00 | 96 | 1010.4 |
| 20260901110002 | 71 | 188 | 0.0 | 0.0 | 0.00 | 0.00 | 0.00 | 95 | 1010.3 |
| 20260901104559 | 71 | 188 | 0.0 | 0.0 | 0.00 | 0.00 | 0.00 | 96 | 1010.3 |
| 20260901103105 | 72 | 188 | 0.0 | 0.0 | 0.00 | 0.00 | 0.00 | 95 | 1010.1 |
| 20260901101557 | 72 | 188 | 0.0 | 0.0 | 0.00 | 0.00 | 0.00 | 96 | 1010.1 |
| 20260901100056 | 72 | 188 | 0.0 | 0.0 | 0.00 | 0.04 | 0.00 | 95 | 1010.1 |
| 20260901094555 | 72 | 188 | 0.0 | 0.0 | 0.00 | 0.04 | 0.00 | 95 | 1010.2 |
| 20260901093055 | 72 | 188 | 0.0 | 0.0 | 0.00 | 0.04 | 0.00 | 95 | 1010.5 |
| 20260901091556 | 72 | 188 | 0.0 | 0.0 | 0.00 | 0.04 | 0.00 | 95 | 1010.3 |
| 20260901090053 | 72 | 188 | 0.0 | 0.0 | 0.00 | 0.04 | 0.00 | 95 | 1010.2 |
| 20260901084550 | 73 | 188 | 0.0 | 0.0 | 0.00 | 0.04 | 0.00 | 94 | 1010.2 |
| 20260901083048 | 73 | 188 | 0.0 | 0.0 | 0.00 | 0.04 | 0.00 | 94 | 1010.0 |
| 20260901081548 | 73 | 188 | 0.0 | 0.0 | 0.00 | 0.04 | 0.00 | 94 | 1010.0 |
| 20260901080052 | 73 | 188 | 0.0 | 0.0 | 0.00 | 0.04 | 0.00 | 94 | 1009.9 |
| 20260901074557 | 74 | 188 | 0.0 | 0.0 | 0.00 | 0.04 | 0.00 | 94 | 1009.9 |
| 20260901073044 | 74 | 188 | 0.0 | 0.0 | 0.00 | 0.04 | 0.00 | 94 | 1009.9 |
| 20260901071544 | 74 | 188 | 0.0 | 0.0 | 0.00 | 0.04 | 0.00 | 94 | 1009.8 |
| 20260901070043 | 74 | 188 | 0.0 | 0.0 | 0.00 | 0.05 | 0.00 | 93 | 1009.7 |
| 20260901064542 | 74 | 188 | 0.0 | 0.0 | 0.00 | 0.05 | 0.00 | 93 | 1009.6 |
| 20260901063044 | 74 | 188 | 0.0 | 0.0 | 0.00 | 0.05 | 0.00 | 93 | 1009.7 |
| 20260901061539 | 74 | 188 | 0.0 | 0.0 | 0.00 | 0.05 | 0.00 | 93 | 1010.0 |
| 20260901060036 | 75 | 188 | 0.0 | 0.0 | 0.00 | 0.05 | 0.00 | 92 | 1009.9 |
| 20260901054536 | 75 | 188 | 0.0 | 0.0 | 0.00 | 0.05 | 0.00 | 92 | 1009.9 |
| 20260901053034 | 75 | 188 | 0.0 | 0.0 | 0.00 | 0.05 | 0.00 | 91 | 1009.8 |
| 20260901051532 | 75 | 188 | 0.0 | 0.0 | 0.00 | 0.05 | 0.00 | 91 | 1009.8 |
| 20260901050031 | 76 | 188 | 0.0 | 0.0 | 0.00 | 0.06 | 0.05 | 91 | 1009.8 |
| 20260901044530 | 76 | 188 | 0.0 | 0.0 | 0.00 | 0.06 | 0.05 | 91 | 1009.8 |
| 20260901043028 | 76 | 188 | 0.0 | 2.0 | 0.00 | 0.06 | 0.05 | 90 | 1009.8 |
| 20260901041529 | 77 | 187 | 0.0 | 1.0 | 0.00 | 0.06 | 0.05 | 90 | 1009.7 |
| 20260901040028 | 77 | 188 | 0.0 | 3.0 | 0.00 | 0.06 | 0.05 | 90 | 1009.8 |
| 20260901034530 | 77 | 194 | 0.0 | 1.0 | 0.00 | 0.06 | 0.05 | 89 | 1009.8 |
| 20260901033028 | 77 | 194 | 0.0 | 1.0 | 0.00 | 0.06 | 0.05 | 89 | 1009.8 |
| 20260901031531 | 78 | 194 | 0.0 | 0.0 | 0.00 | 0.06 | 0.05 | 88 | 1009.8 |
| 20260901030026 | 78 | 194 | 0.0 | 1.0 | 0.00 | 0.06 | 0.05 | 88 | 1010.0 |
| 20260901024526 | 78 | 194 | 0.0 | 3.0 | 0.00 | 0.06 | 0.05 | 87 | 1010.0 |
| 20260901023026 | 79 | 198 | 0.0 | 1.0 | 0.00 | 0.06 | 0.05 | 86 | 1009.9 |
| 20260901021527 | 79 | 200 | 0.0 | 2.0 | 0.00 | 0.06 | 0.05 | 86 | 1009.9 |
| 20260901020024 | 80 | 202 | 0.0 | 5.0 | 0.00 | 0.06 | 0.05 | 85 | 1010.0 |
| 20260901014523 | 80 | 193 | 0.0 | 3.0 | 0.00 | 0.06 | 0.05 | 84 | 1009.8 |
| 20260901013037 | 80 | 197 | 0.0 | 3.0 | 0.00 | 0.06 | 0.05 | 83 | 1009.7 |
| 20260901011533 | 81 | 198 | 0.0 | 0.0 | 0.00 | 0.06 | 0.05 | 82 | 1009.2 |
| 20260901010024 | 81 | 198 | 0.0 | 2.0 | 0.00 | 0.06 | 0.05 | 80 | 1009.0 |
| 20260901004522 | 82 | 321 | 0.0 | 2.0 | 0.00 | 0.06 | 0.05 | 79 | 1008.8 |
| 20260901003022 | 83 | 202 | 0.0 | 3.0 | 0.00 | 0.06 | 0.05 | 78 | 1008.6 |
| 20260901001521 | 83 | 207 | 0.0 | 5.0 | 0.00 | 0.06 | 0.05 | 77 | 1008.5 |
| 20260901000028 | 84 | 196 | 0.0 | 3.0 | 0.00 | 0.06 | 0.05 | 76 | 1008.4 |
| 20260831234520 | 84 | 199 | 0.0 | 1.0 | 0.00 | 0.06 | 0.05 | 75 | 1008.1 |
| 20260831233023 | 84 | 199 | 0.0 | 0.0 | 0.00 | 0.06 | 0.05 | 74 | 1008.1 |
| 20260831231519 | 85 | 200 | 0.0 | 0.0 | 0.00 | 0.06 | 0.05 | 74 | 1008.1 |
| 20260831230019 | 85 | 200 | 0.0 | 0.0 | 0.00 | 0.06 | 0.05 | 72 | 1007.8 |
| 20260831224517 | 86 | 200 | 0.0 | 4.0 | 0.00 | 0.06 | 0.05 | 70 | 1007.9 |
| 20260831223017 | 86 | 240 | 0.0 | 3.0 | 0.00 | 0.06 | 0.05 | 69 | 1007.9 |
| 20260831221517 | 87 | 201 | 0.0 | 4.0 | 0.00 | 0.06 | 0.05 | 68 | 1007.9 |
| 20260831220016 | 88 | 200 | 2.0 | 5.0 | 0.00 | 0.06 | 0.05 | 66 | 1007.9 |
| 20260831214518 | 89 | 190 | 0.0 | 5.0 | 0.00 | 0.06 | 0.05 | 64 | 1008.1 |
| 20260831213014 | 90 | 193 | 1.0 | 6.0 | 0.00 | 0.06 | 0.05 | 62 | 1008.0 |
| 20260831211515 | 92 | 205 | 1.0 | 6.0 | 0.00 | 0.06 | 0.05 | 59 | 1007.8 |
| 20260831210013 | 92 | 314 | 1.0 | 4.0 | 0.00 | 0.06 | 0.05 | 60 | 1007.7 |
| 20260831204510 | 92 | 291 | 1.0 | 4.0 | 0.00 | 0.06 | 0.05 | 60 | 1007.8 |
| 20260831203008 | 91 | 240 | 0.0 | 3.0 | 0.00 | 0.06 | 0.05 | 60 | 1007.9 |
| 20260831201512 | 90 | 249 | 1.0 | 7.0 | 0.00 | 0.06 | 0.05 | 62 | 1007.7 |
| 20260831200001 | 89 | 288 | 1.0 | 7.0 | 0.00 | 0.06 | 0.05 | 64 | 1008.1 |
| 20260831194502 | 89 | 305 | 3.0 | 6.0 | 0.00 | 0.06 | 0.05 | 64 | 1007.9 |
| 20260831193100 | 89 | 290 | 2.0 | 5.0 | 0.00 | 0.06 | 0.05 | 63 | 1007.9 |
| 20260831191600 | 89 | 292 | 1.0 | 5.0 | 0.00 | 0.06 | 0.05 | 63 | 1008.0 |
| 20260831190054 | 87 | 282 | 2.0 | 5.0 | 0.00 | 0.06 | 0.05 | 64 | 1008.4 |
| 20260831184553 | 87 | 257 | 2.0 | 9.0 | 0.00 | 0.06 | 0.05 | 65 | 1008.4 |
| 20260831183049 | 86 | 208 | 0.0 | 7.0 | 0.00 | 0.06 | 0.05 | 66 | 1008.2 |
| 20260831181553 | 86 | 285 | 2.0 | 8.0 | 0.00 | 0.06 | 0.05 | 66 | 1008.2 |
| 20260831180045 | 85 | 302 | 1.0 | 7.0 | 0.00 | 0.06 | 0.05 | 67 | 1008.3 |
| 20260831180020 | 85 | 302 | 2.0 | 7.0 | 0.00 | 0.06 | 0.05 | 67 | 1008.3 |
| 20260831174549 | 85 | 267 | 1.0 | 8.0 | 0.00 | 0.06 | 0.05 | 67 | 1008.5 |
| 20260831173042 | 85 | 310 | 3.0 | 5.0 | 0.00 | 0.06 | 0.05 | 67 | 1008.6 |
| 20260831171540 | 84 | 200 | 2.0 | 6.0 | 0.00 | 0.06 | 0.05 | 66 | 1008.4 |
| 20260831170041 | 83 | 275 | 5.0 | 9.0 | 0.00 | 0.06 | 0.05 | 68 | 1008.6 |
| 20260831164535 | 83 | 283 | 2.0 | 7.0 | 0.00 | 0.06 | 0.05 | 68 | 1008.7 |
| 20260831163033 | 83 | 262 | 2.0 | 8.0 | 0.00 | 0.06 | 0.05 | 70 | 1008.8 |
| 20260831161532 | 82 | 194 | 0.0 | 8.0 | 0.00 | 0.06 | 0.05 | 71 | 1008.6 |
| 20260831160029 | 82 | 198 | 2.0 | 8.0 | 0.00 | 0.06 | 0.05 | 70 | 1009.0 |
| 20260831154526 | 82 | 315 | 2.0 | 8.0 | 0.00 | 0.06 | 0.05 | 70 | 1008.9 |